ZF1RC George Town KY current weather conditions

sailwx.info

Wind from 031

Air temperature 20.6° C
Dewpoint 18.3° C

Last reported at 2017-Feb-22 06:00 UTC.
Time now 2017-Feb-22 06:38 UTC

Location: N 19°16' W 081°23'.
View on Google Maps.

See reports from other nearby stations

  
Tides and Currents Weather Stations Pressure Air Temp Water Temp Dewpoint Dewpoint Depression Visibility Wind Speed Wind Dir Waves Ship Positions
date/time (UTC)wind fromknots sea level pressurealtimeterstation pressurevisibilityair tempwater tempwave heightnotes
2017-Feb-22 06:00 031 20.6
2017-Feb-22 05:50 056 20.6
2017-Feb-22 05:40 001 20.6
2017-Feb-22 05:30 001 20.6
2017-Feb-22 05:20 001 21.1
2017-Feb-22 05:10 001 21.1
2017-Feb-22 05:00 058 21.1
2017-Feb-22 04:50 114 21.7
2017-Feb-22 04:40 047 21.7
2017-Feb-22 04:30 041 22.2
2017-Feb-22 04:20 067 0 gusting 1 22.2
2017-Feb-22 04:10 064 0 gusting 1 22.2
2017-Feb-22 04:00 118 0 gusting 1 22.2
2017-Feb-22 03:50 094 0 gusting 1 22.2
2017-Feb-22 03:40 102 0 gusting 0 22.2
2017-Feb-22 03:30 104 0 gusting 2 22.2
2017-Feb-22 03:20 108 1 gusting 1 22.2
2017-Feb-22 03:10 093 0 gusting 1 22.2
2017-Feb-22 03:00 098 1 gusting 2 22.2
2017-Feb-22 02:50 099 1 gusting 1 22.8
2017-Feb-22 02:40 092 0 gusting 1 22.2
2017-Feb-22 02:30 090 0 gusting 2 22.8
2017-Feb-22 02:20 085 0 gusting 2 22.8
2017-Feb-22 02:10 095 0 gusting 1 22.8
2017-Feb-22 02:00 092 0 gusting 1 22.8
2017-Feb-22 01:50 090 0 gusting 0 22.8
2017-Feb-22 01:40 092 23.3
2017-Feb-22 01:30 102 0 gusting 1 23.3
2017-Feb-22 01:20 066 0 gusting 1 23.3
2017-Feb-22 01:10 092 1 gusting 1 23.3
2017-Feb-22 01:00 118 0 gusting 2 23.9
2017-Feb-22 00:50 091 0 gusting 2 23.9
2017-Feb-22 00:40 084 2 gusting 2 23.9
2017-Feb-22 00:30 091 2 gusting 2 23.9
2017-Feb-22 00:20 090 1 gusting 2 23.9
2017-Feb-22 00:10 125 1 gusting 2 24.4
2017-Feb-22 00:00 112 1 gusting 2 24.4
2017-Feb-21 23:50 086 1 gusting 2 25.0
2017-Feb-21 23:40 013 0 gusting 2 25.0
2017-Feb-21 23:30 053 2 gusting 2 25.0
2017-Feb-21 23:20 091 2 gusting 4 25.6
2017-Feb-21 23:10 069 1 gusting 4 25.6
2017-Feb-21 23:00 065 1 gusting 4 26.1
2017-Feb-21 22:54 102 4 gusting 5 26.1
2017-Feb-21 22:50 031 5 gusting 5 26.1
2017-Feb-21 22:40 181 4 gusting 5 26.7
2017-Feb-21 22:30 066 1 gusting 5 27.2
2017-Feb-21 22:20 065 3 gusting 6 27.2
2017-Feb-21 22:10 096 3 gusting 8 27.2
2017-Feb-21 22:00 090 4 gusting 7 27.8
2017-Feb-21 21:50 077 4 gusting 5 27.8
2017-Feb-21 21:40 088 1 gusting 5 28.3
2017-Feb-21 21:30 147 3 gusting 6 28.3
2017-Feb-21 21:20 114 1 gusting 7 28.9
2017-Feb-21 21:10 121 1 gusting 6 28.9
2017-Feb-21 21:00 287 28.9
2017-Feb-21 20:50 126 0 gusting 2 28.9
2017-Feb-21 20:40 183 0 gusting 0 28.9
2017-Feb-21 20:30 094 0 gusting 4 28.3
2017-Feb-21 20:20 129 0 gusting 4 28.3
2017-Feb-21 20:10 160 0 gusting 4 27.8
2017-Feb-21 20:00 206 1 gusting 4 27.8
2017-Feb-21 19:50 080 0 gusting 6 27.2
2017-Feb-21 19:40 169 1 gusting 6 27.2
2017-Feb-21 19:30 259 0 gusting 5 27.8
2017-Feb-21 19:20 165 3 gusting 4 28.3
2017-Feb-21 19:10 146 1 gusting 8 27.8
2017-Feb-21 19:00 100 3 gusting 5 27.8
2017-Feb-21 18:50 105 3 gusting 6 27.8
2017-Feb-21 18:40 138 6 gusting 6 27.2
2017-Feb-21 18:30 070 2 gusting 7 27.2
2017-Feb-21 18:20 089 3 gusting 6 27.8
2017-Feb-21 18:10 067 2 gusting 7 27.8
2017-Feb-21 18:00 065 5 gusting 7 27.2
2017-Feb-21 17:50 070 6 gusting 7 26.7
2017-Feb-21 17:40 011 5 gusting 6 27.2
2017-Feb-21 17:30 077 4 gusting 7 27.2
2017-Feb-21 17:20 053 4 gusting 10 27.2
2017-Feb-21 17:10 353 6 gusting 10 27.8
2017-Feb-21 17:00 043 3 gusting 7 27.8
2017-Feb-21 16:50 069 9 gusting 10 27.2
2017-Feb-21 16:40 040 5 gusting 10 27.8
2017-Feb-21 16:30 090 3 gusting 11 27.8
2017-Feb-21 16:10 099 5 gusting 8 27.8
2017-Feb-21 15:50 076 4 gusting 8 27.2
2017-Feb-21 15:40 041 5 gusting 13 27.2
2017-Feb-21 15:30 078 4 gusting 12 27.2
2017-Feb-21 15:20 053 8 gusting 11 27.2
2017-Feb-21 15:10 081 4 gusting 10 27.8
2017-Feb-21 15:00 083 6 gusting 8 27.8
2017-Feb-21 14:50 059 6 gusting 11 27.8
2017-Feb-21 14:40 059 6 gusting 7 27.8
2017-Feb-21 14:30 094 4 gusting 6 27.2
2017-Feb-21 14:20 106 2 gusting 8 27.8
2017-Feb-21 14:10 109 6 gusting 8 27.2
2017-Feb-21 14:00 046 5 gusting 7 26.7
2017-Feb-21 13:50 098 3 gusting 6 26.7
2017-Feb-21 13:40 099 4 gusting 5 26.7
2017-Feb-21 13:30 098 1 gusting 6 26.1
2017-Feb-21 13:20 066 4 gusting 5 26.1
2017-Feb-21 13:10 090 2 gusting 5 25.6
2017-Feb-21 13:00 085 1 gusting 6 25.6
2017-Feb-21 12:50 118 1 gusting 1 24.4
2017-Feb-21 12:40 108 0 gusting 2 24.4
2017-Feb-21 12:30 103 0 gusting 2 24.4
2017-Feb-21 12:20 105 2 gusting 4 24.4
2017-Feb-21 12:10 108 2 gusting 2 24.4
2017-Feb-21 12:00 095 0 gusting 2 23.9
2017-Feb-21 11:50 085 2 gusting 2 24.4
2017-Feb-21 11:40 073 1 gusting 4 23.9
2017-Feb-21 11:30 110 1 gusting 4 23.9
2017-Feb-21 11:20 083 2 gusting 6 23.9
2017-Feb-21 11:10 091 1 gusting 2 23.9
2017-Feb-21 11:00 063 2 gusting 2 23.9
2017-Feb-21 10:50 082 2 gusting 4 23.9
2017-Feb-21 10:40 068 0 gusting 4 23.9
2017-Feb-21 10:30 332 2 gusting 2 23.3
2017-Feb-21 10:20 088 1 gusting 2 23.3
2017-Feb-21 10:10 171 1 gusting 1 23.3
2017-Feb-21 10:00 107 0 gusting 1 22.8
2017-Feb-21 09:50 052 0 gusting 0 22.8
2017-Feb-21 09:40 089 0 gusting 0 22.8
2017-Feb-21 09:30 108 0 gusting 1 22.8
2017-Feb-21 09:20 048 0 gusting 0 22.2
2017-Feb-21 09:10 019 22.2
2017-Feb-21 09:00 047 21.7
2017-Feb-21 08:50 071 0 gusting 0 21.7
2017-Feb-21 08:40 051 21.7
2017-Feb-21 08:30 025 0 gusting 0 21.7
2017-Feb-21 08:20 006 21.7
2017-Feb-21 08:10 049 21.1
2017-Feb-21 08:00 002 21.1
2017-Feb-21 07:50 037 21.7
2017-Feb-21 07:40 037 21.7
2017-Feb-21 07:30 035 21.7
2017-Feb-21 07:20 046 21.7
2017-Feb-21 07:10 034 0 gusting 0 21.7
2017-Feb-21 07:00 034 21.7
2017-Feb-21 06:50 035 22.2
2017-Feb-21 06:40 051 0 gusting 0 21.7
2017-Feb-21 06:30 050 21.7
2017-Feb-21 06:20 056 21.7
2017-Feb-21 06:10 052 21.7
2017-Feb-21 06:00 064 21.7
2017-Feb-21 05:50 056 21.7
2017-Feb-21 05:40 075 21.7
2017-Feb-21 05:30 069 21.7
2017-Feb-21 05:20 069 22.2
2017-Feb-21 05:10 069 22.2
2017-Feb-21 05:00 069 22.2
2017-Feb-21 04:50 094 22.8
2017-Feb-21 04:40 101 22.8
2017-Feb-21 04:30 058 22.8
2017-Feb-21 04:20 070 22.8
2017-Feb-21 04:10 069 0 gusting 0 23.3
2017-Feb-21 04:00 068 23.3
2017-Feb-21 03:50 065 0 gusting 0 23.3
2017-Feb-21 03:40 069 23.3
2017-Feb-21 03:30 066 23.3
2017-Feb-21 03:20 059 0 gusting 1 23.3
2017-Feb-21 03:10 081 0 gusting 1 23.3
2017-Feb-21 03:00 085 0 gusting 0 23.9
2017-Feb-21 02:50 092 0 gusting 1 23.9
2017-Feb-21 02:40 090 0 gusting 0 23.9
2017-Feb-21 02:30 093 23.9
2017-Feb-21 02:20 103 0 gusting 0 24.4
2017-Feb-21 02:10 106 24.4
2017-Feb-21 02:00 114 0 gusting 0 24.4
2017-Feb-21 01:50 136 25.0
2017-Feb-21 01:40 140 0 gusting 2 25.0
2017-Feb-21 01:30 088 0 gusting 2 25.0
2017-Feb-21 01:20 149 25.6
2017-Feb-21 01:10 088 3 gusting 4 25.6
2017-Feb-21 01:00 098 2 gusting 4 25.6
2017-Feb-21 00:50 072 1 gusting 4 25.6
2017-Feb-21 00:40 105 1 gusting 4 25.6
2017-Feb-21 00:30 094 0 gusting 5 26.1
2017-Feb-21 00:20 077 2 gusting 4 26.1
2017-Feb-21 00:10 100 3 gusting 5 26.1
2017-Feb-21 00:00 049 2 gusting 4 26.1
2017-Feb-20 23:50 110 3 gusting 5 26.7
2017-Feb-20 23:40 071 1 gusting 6 26.7
2017-Feb-20 23:30 096 2 gusting 6 26.7
2017-Feb-20 23:20 041 2 gusting 6 26.7
2017-Feb-20 23:10 021 2 gusting 5 27.2
2017-Feb-20 23:00 114 4 gusting 5 27.2
2017-Feb-20 22:54 027 4 gusting 6 27.2
2017-Feb-20 22:50 090 4 gusting 6 27.2
2017-Feb-20 22:40 113 6 gusting 7 27.8
2017-Feb-20 22:30 115 2 gusting 5 28.3
2017-Feb-20 22:20 056 3 gusting 6 28.3
2017-Feb-20 22:10 071 5 gusting 6 28.3
2017-Feb-20 22:00 050 1 gusting 6 28.9
2017-Feb-20 21:50 080 6 gusting 8 28.3
2017-Feb-20 21:40 013 2 gusting 6 28.3
2017-Feb-20 21:30 051 5 gusting 8 28.9
2017-Feb-20 21:20 032 6 gusting 10 29.4
2017-Feb-20 21:10 098 4 gusting 7 29.4
2017-Feb-20 21:00 089 6 gusting 10 28.9
2017-Feb-20 20:50 027 7 gusting 10 28.9
2017-Feb-20 20:40 066 5 gusting 11 28.9
2017-Feb-20 20:30 030 7 gusting 10 28.9
2017-Feb-20 20:20 003 2 gusting 10 28.9
2017-Feb-20 20:10 025 6 gusting 12 28.9
2017-Feb-20 20:00 033 2 gusting 8 29.4
2017-Feb-20 19:50 105 4 gusting 7 28.9
2017-Feb-20 19:40 041 4 gusting 7 28.9
2017-Feb-20 19:30 032 4 gusting 8 28.9
2017-Feb-20 19:20 076 5 gusting 11 28.9
2017-Feb-20 19:10 041 6 gusting 11 28.3
2017-Feb-20 19:00 049 6 gusting 13 28.3
2017-Feb-20 18:50 013 6 gusting 13 28.3
2017-Feb-20 18:40 022 6 gusting 8 28.9
2017-Feb-20 18:30 064 6 gusting 10 29.4
2017-Feb-20 18:20 096 4 gusting 8 29.4
2017-Feb-20 18:10 071 6 gusting 8 28.9
2017-Feb-20 18:00 074 7 gusting 10 28.9
2017-Feb-20 17:50 044 10 gusting 11 28.3
2017-Feb-20 17:40 124 5 gusting 11 27.8
2017-Feb-20 17:30 010 6 gusting 8 27.2
2017-Feb-20 17:20 004 7 gusting 11 27.2
2017-Feb-20 17:10 091 4 gusting 5 27.2
2017-Feb-20 17:00 096 4 gusting 13 27.2
2017-Feb-20 16:50 068 7 gusting 8 27.2
2017-Feb-20 16:40 020 7 gusting 8 27.8
2017-Feb-20 16:30 060 5 gusting 8 27.8
2017-Feb-20 16:10 042 7 gusting 10 27.8
2017-Feb-20 16:00 039 5 gusting 8 28.3
2017-Feb-20 15:50 048 6 gusting 7 28.9
2017-Feb-20 15:40 021 7 gusting 7 28.9
2017-Feb-20 15:30 065 6 gusting 6 28.3
2017-Feb-20 15:20 090 4 gusting 7 28.3
2017-Feb-20 15:10 072 3 gusting 6 28.9
2017-Feb-20 15:00 047 7 gusting 7 28.3
2017-Feb-20 14:50 016 4 gusting 6 27.8
2017-Feb-20 14:40 026 3 gusting 5 27.8
2017-Feb-20 14:30 089 1 gusting 4 26.7
2017-Feb-20 14:20 087 1 gusting 6 26.7
2017-Feb-20 14:10 043 5 gusting 6 26.7
2017-Feb-20 14:00 033 2 gusting 7 26.7
2017-Feb-20 13:50 036 1 gusting 6 26.7
2017-Feb-20 13:40 029 4 gusting 6 26.7
2017-Feb-20 13:30 034 2 gusting 7 26.7
2017-Feb-20 13:20 047 2 gusting 6 26.1
2017-Feb-20 13:10 026 5 gusting 6 25.6
2017-Feb-20 13:00 141 5 gusting 5 25.0
2017-Feb-20 12:50 069 4 gusting 5 24.4
2017-Feb-20 12:40 077 1 gusting 2 23.9
2017-Feb-20 12:30 099 0 gusting 0 23.3
2017-Feb-20 12:20 074 23.3
2017-Feb-20 12:10 059 0 gusting 0 23.3
2017-Feb-20 12:00 057 23.3
2017-Feb-20 11:50 075 0 gusting 0 23.3
2017-Feb-20 11:40 048 0 gusting 0 22.8
2017-Feb-20 11:30 080 0 gusting 1 22.8
2017-Feb-20 11:20 106 0 gusting 1 22.2
2017-Feb-20 11:10 086 22.2
2017-Feb-20 11:00 133 0 gusting 0 22.2
2017-Feb-20 10:50 105 22.2
2017-Feb-20 10:40 117 22.8
2017-Feb-20 10:30 093 0 gusting 1 22.8
2017-Feb-20 10:20 095 0 gusting 0 22.8
2017-Feb-20 10:10 091 0 gusting 1 22.8
2017-Feb-20 10:00 090 1 gusting 2 22.8
2017-Feb-20 09:50 107 1 gusting 1 22.8
2017-Feb-20 09:40 086 0 gusting 1 22.8
2017-Feb-20 09:30 103 0 gusting 1 22.8
2017-Feb-20 09:20 100 0 gusting 0 22.8
2017-Feb-20 09:10 077 22.8
2017-Feb-20 09:00 040 22.8
2017-Feb-20 08:50 060 22.8
2017-Feb-20 08:40 030 0 gusting 0 22.8
2017-Feb-20 08:30 066 22.8
2017-Feb-20 08:20 034 0 gusting 0 23.3
2017-Feb-20 08:10 018 0 gusting 0 23.3
2017-Feb-20 08:00 013 0 gusting 0 23.3
2017-Feb-20 07:50 020 0 gusting 0 23.3
2017-Feb-20 07:40 043 0 gusting 1 23.3
2017-Feb-20 07:30 032 0 gusting 0 23.3
2017-Feb-20 07:20 054 0 gusting 0 23.3
2017-Feb-20 07:10 059 23.3
2017-Feb-20 07:00 097 23.3
2017-Feb-20 06:50 042 0 gusting 0 23.3
2017-Feb-20 06:40 069 0 gusting 0 23.9
2017-Feb-20 06:30 059 0 gusting 0 23.9
2017-Feb-20 06:20 073 1 gusting 1 23.9
2017-Feb-20 06:10 047 0 gusting 1 23.9
2017-Feb-20 06:00 089 0 gusting 1 23.9